Retour au catalogue

MKA-N 2

ActifScienceSSO
NORAD 42836·PAYLOAD·🇷🇺 Russia
Ce nom de satellite n'a pas encore été confirmé par des sources officielles.

Lancé Jul 14, 2017 depuis Baikonur Cosmodrome

Loading…

Prochains Passages (prochaines 24 heures)

TLE

FraisSource: Space-Track

Époque: Sep 13, 2026, 22:56 UTC

1 42836U 17042M   26256.95600305  .00002881  00000-0  18372-3 0  9999
2 42836  97.4365  56.1388 0004914 136.4825 223.6793 15.09476185500404

Suivez MKA-N 2 en temps réel avec AllMySat

Download on the App Store